This is the latest recevied weather packets stored in our database for station/object N2ZVN. If no packets are shown the sender has not sent any weather packets the latest 10 day(s).
| Time | Temp. | Humidity | Pressure | Rain* | Wind** | Luminosity | Snow |
|---|---|---|---|---|---|---|---|
| 1777461950 | 9.44° C | 82% | 1013.5 hPa | 0 mm | - | 28 W/m² | - |
| 1777461647 | 9.44° C | 82% | 1013.4 hPa | 0 mm | - | 21 W/m² | - |
| 1777461342 | 9.44° C | 81% | 1013.6 hPa | 0 mm | - | 12 W/m² | - |
| 1777461038 | 9.44° C | 82% | 1013.6 hPa | 0 mm | - | 9 W/m² | - |
| 1777460733 | 9.44° C | 82% | 1013.7 hPa | 0 mm | - | 8 W/m² | - |
| 1777460431 | 9.44° C | 82% | 1013.6 hPa | 0 mm | - | 6 W/m² | - |
| 1777460126 | 9.44° C | 81% | 1013.5 hPa | 0 mm | - | 6 W/m² | - |
| 1777459823 | 9.44° C | 81% | 1013.4 hPa | 0 mm | - | 6 W/m² | - |
| 1777459520 | 9.44° C | 81% | 1013.5 hPa | 0 mm | - | 5 W/m² | - |
| 1777459218 | 9.44° C | 82% | 1013.6 hPa | 0 mm | - | 5 W/m² | - |
| 1777458915 | 9.44° C | 81% | 1013.6 hPa | 0 mm | - | 3 W/m² | - |
| 1777458611 | 9.44° C | 81% | 1013.6 hPa | 0 mm | - | 3 W/m² | - |
| 1777458308 | 9.44° C | 82% | 1013.8 hPa | 0 mm | - | 2 W/m² | - |
| 1777458003 | 9.44° C | 83% | 1013.6 hPa | 0 mm | - | 1 W/m² | - |
| 1777457700 | 9.44° C | 82% | 1013.4 hPa | 0 mm | - | 1 W/m² | - |
| 1777457400 | 9.44° C | 81% | 1013.6 hPa | 0 mm | - | 1 W/m² | - |
| 1777457095 | 10° C | 81% | 1013.7 hPa | 0 mm | - | 0 W/m² | - |
| 1777456792 | 10° C | 82% | 1013.6 hPa | 0 mm | - | 0 W/m² | - |
| 1777456491 | 10° C | 83% | 1013.7 hPa | 0 mm | - | 0 W/m² | - |
| 1777456187 | 10° C | 84% | 1013.9 hPa | 0 mm | - | 0 W/m² | - |
| 1777455883 | 10° C | 83% | 1013.9 hPa | 0 mm | - | 0 W/m² | - |
| 1777455580 | 10° C | 84% | 1014.1 hPa | 0 mm | - | 0 W/m² | - |
| 1777455277 | 10° C | 85% | 1013.7 hPa | 0 mm | - | 0 W/m² | - |
| 1777454973 | 10° C | 84% | 1013.7 hPa | 0 mm | - | 0 W/m² | - |
| 1777454671 | 10° C | 85% | 1013.6 hPa | 0 mm | - | 0 W/m² | - |
* Rain latest hour (hover to see other rain measurements)
** Current wind speed in m/s (hover to see current wind gust speed)